TimeEST,TemperatureF,Dew PointF,Humidity,Sea Level PressureIn,VisibilityMPH,Wind Direction,Wind SpeedMPH,Gust SpeedMPH,PrecipitationIn,Events,Conditions,WindDirDegrees,DateUTC
12:53 AM,15.1,6.1,68,30.24,10.0,SSW,16.1,-,N/A,,Overcast,210,2013-02-02 05:53:00
1:53 AM,15.1,6.1,68,30.22,10.0,SW,12.7,-,N/A,,Overcast,220,2013-02-02 06:53:00
2:53 AM,16.0,6.1,65,30.20,10.0,SSW,12.7,-,N/A,,Scattered Clouds,210,2013-02-02 07:53:00
4:53 AM,17.1,9.0,71,30.16,2.5,North,-9999.0,-,0.00,Snow,Light Snow,0,2013-02-02 09:53:00
5:09 AM,17.6,8.6,68,30.12,4.0,SSW,11.5,-,0.00,Snow,Light Snow,210,2013-02-02 10:09:00
5:39 AM,17.6,10.4,73,30.10,2.0,SSW,13.8,-,0.00,Snow,Light Snow,210,2013-02-02 10:39:00
5:53 AM,17.1,10.0,74,30.12,2.5,SSW,11.5,-,0.00,Snow,Light Snow,210,2013-02-02 10:53:00
6:10 AM,17.6,10.4,73,30.09,4.0,SSW,13.8,-,0.00,Snow,Light Snow,200,2013-02-02 11:10:00
7:24 AM,17.6,10.4,73,30.07,2.5,SSW,10.4,-,0.00,Snow,Light Snow,200,2013-02-02 12:24:00
7:33 AM,17.6,10.4,73,30.06,1.8,SSW,10.4,-,0.00,Snow,Light Snow,200,2013-02-02 12:33:00
7:53 AM,18.0,12.0,78,30.09,1.0,SSW,9.2,-,0.00,Snow,Light Snow,200,2013-02-02 12:53:00
8:00 AM,17.6,12.2,79,30.06,0.5,South,9.2,-,0.00,Snow,Snow,190,2013-02-02 13:00:00
8:27 AM,17.6,12.2,79,30.05,1.0,South,9.2,-,0.00,Snow,Light Snow,190,2013-02-02 13:27:00
8:53 AM,19.0,12.9,77,30.08,1.8,SSW,10.4,-,0.00,Snow,Light Snow,200,2013-02-02 13:53:00
9:21 AM,19.4,12.2,74,30.03,2.0,SSW,12.7,-,0.00,Snow,Light Snow,200,2013-02-02 14:21:00
9:46 AM,19.4,12.2,74,30.03,3.0,SSW,11.5,-,0.00,Snow,Light Snow,200,2013-02-02 14:46:00
9:53 AM,19.9,12.9,74,30.06,2.5,North,-9999.0,-,0.00,Snow,Light Snow,0,2013-02-02 14:53:00
10:08 AM,19.4,12.2,74,30.02,5.0,SSW,11.5,19.6,0.00,Snow,Light Snow,200,2013-02-02 15:08:00
10:22 AM,19.4,12.2,74,30.01,6.0,SSW,12.7,-,0.00,Snow,Light Snow,210,2013-02-02 15:22:00
10:30 AM,19.4,14.0,80,30.01,7.0,SSW,11.5,-,0.00,,Overcast,210,2013-02-02 15:30:00
10:53 AM,21.0,12.9,71,30.03,6.0,SSW,12.7,21.9,0.00,,Haze,210,2013-02-02 15:53:00
11:04 AM,21.2,14.0,74,30.00,6.0,SSW,16.1,-,N/A,,Haze,210,2013-02-02 16:04:00
11:53 AM,21.9,14.0,72,30.01,8.0,SW,10.4,-,N/A,,Overcast,220,2013-02-02 16:53:00
12:53 PM,21.9,15.1,75,29.99,4.0,SW,10.4,-,0.00,Snow,Light Snow,230,2013-02-02 17:53:00
1:05 PM,21.2,15.8,80,29.95,2.0,SW,8.1,-,0.00,Snow,Light Snow,230,2013-02-02 18:05:00
1:09 PM,23.0,15.8,74,29.95,1.8,SW,9.2,-,0.00,Snow,Light Snow,220,2013-02-02 18:09:00
1:30 PM,23.0,15.8,74,29.95,1.5,SSW,9.2,-,0.00,Snow,Light Snow,210,2013-02-02 18:30:00
1:53 PM,23.0,16.0,74,29.97,3.0,SSW,9.2,-,0.00,Snow,Light Snow,210,2013-02-02 18:53:00
2:02 PM,23.0,15.8,74,29.94,3.0,SSW,9.2,-,0.00,Snow,Light Snow,210,2013-02-02 19:02:00
2:48 PM,24.8,17.6,74,29.93,3.0,SSW,8.1,-,0.00,Snow,Light Snow,210,2013-02-02 19:48:00
2:53 PM,24.1,17.1,75,29.96,3.0,SSW,8.1,-,0.00,Snow,Light Snow,210,2013-02-02 19:53:00
3:00 PM,24.8,17.6,74,29.93,1.8,SSW,6.9,-,0.00,Snow,Light Snow,210,2013-02-02 20:00:00
3:53 PM,24.1,18.0,77,29.96,1.5,SSW,5.8,-,0.00,Snow,Light Snow,200,2013-02-02 20:53:00
4:37 PM,24.8,19.4,80,29.94,0.8,SW,3.5,-,0.00,Snow,Light Snow,230,2013-02-02 21:37:00
4:50 PM,24.8,17.6,74,29.95,0.5,North,11.5,-,0.00,Snow,Snow,350,2013-02-02 21:50:00
4:53 PM,23.0,17.1,78,29.97,0.2,NNW,11.5,-,0.00,Snow,Heavy Snow,340,2013-02-02 21:53:00
5:06 PM,23.0,17.6,80,29.95,0.5,NNW,8.1,-,0.00,Snow,Snow,340,2013-02-02 22:06:00
5:23 PM,21.2,15.8,80,29.96,0.8,NNW,9.2,-,0.00,Snow,Light Snow,340,2013-02-02 22:23:00
5:31 PM,21.2,15.8,80,29.96,1.0,NNW,11.5,-,0.00,Snow,Light Snow,340,2013-02-02 22:31:00
5:51 PM,21.2,15.8,80,29.96,2.5,NNW,9.2,-,0.00,Snow,Light Snow,340,2013-02-02 22:51:00
5:53 PM,21.9,15.1,75,29.99,2.5,NNW,9.2,-,0.00,Snow,Light Snow,340,2013-02-02 22:53:00
6:01 PM,21.2,14.0,74,29.97,4.0,NNW,8.1,-,0.00,Snow,Light Snow,340,2013-02-02 23:01:00
6:53 PM,19.9,12.9,74,30.01,10.0,NNW,6.9,-,0.00,,Overcast,330,2013-02-02 23:53:00
7:53 PM,19.9,10.9,68,30.03,10.0,NNW,10.4,-,N/A,,Overcast,340,2013-02-03 00:53:00
8:48 PM,17.6,8.6,68,30.00,10.0,North,10.4,-,N/A,,Overcast,350,2013-02-03 01:48:00
8:53 PM,17.1,8.1,68,30.04,10.0,North,11.5,-,N/A,,Overcast,350,2013-02-03 01:53:00
9:53 PM,17.1,7.0,65,30.04,10.0,North,6.9,-,N/A,,Overcast,360,2013-02-03 02:53:00
10:53 PM,15.1,5.0,64,30.04,10.0,North,5.8,-,N/A,,Overcast,350,2013-02-03 03:53:00